Starlink 11531

operational
NORAD ID: 62841 Int'l Des: 2025-019 Owner: SPXS Country: US Constellation: starlink
LEOCIRCULAR

About Starlink 11531

Description loading...

Live Position

Loading 3D Globe...

Upcoming Passes

Altitude History

Altitude vs Time

uPlot chart will show altitude changes over time

Two-Line Element Set

1 62841U 25019N 25257.46674878 .00165201 00000-0 12641-2 0 9990
2 62841 42.9997 288.3557 0001641 284.2964 75.7721 15.70865807 36160
Epoch: Sep 14, 2025 • Age: 25 hours

Current Status

Altitude 358.2 km
Velocity 7.70 km/s
Sub-Earth Point 37.95°N, 165.44°E
Launch Date Jan 27, 2025
Age 0.6 years
Type internet

Technical Details

Classification Payload
Mass 960.00 kg
Dry Mass 910.00 kg
Total Mass 960.00 kg
Length 0.30 m
Diameter 4.10 m
Span 29.00 m
Shape Box + pan
Manufacturer SPXS
Bus Type Starlink V2MD
Phase Status In Orbit
Owner/State SPXS/US

Large Constellations

Loading constellations...